Platzwetter & Webcam am Flugplatz Wels

Flugwetter Linz LOWL

[Quelle: ADDS]
METAR
LOWL 241550Z 27011KT 9999 TSRA SCT032 BKN048 SCT050CB BKN080 18/15 Q1017 TEMPO 2000 TSRA =
TAF
AMD LOWL 241252Z 2412/2512 VRB02KT 9999 SCT040 BKN090 TX24/2413Z TN15/2503Z TEMPO 2412/2512 10007KT -SHRA BKN040 FEW045CB TEMPO 2413/2500 29015G25KT 3000 TSRA TEMPO 2509/2512 26005KT -TSRA =

Flugwetter Salzburg LOWS

[Quelle: ADDS]
METAR
LOWS 241550Z 35006KT 9999 FEW022 SCT032 FEW045TCU BKN070 20/15 Q1017 TEMPO TSRA SCT035 FEW040CB =
TAF
LOWS 241115Z 2412/2512 34006KT 9999 SCT030 BKN090 TX22/2512Z TN12/2504Z TEMPO 2412/2420 15015G30KT 6000 TSRA SCT030CB BKN050 BECMG 2418/2420 15005KT BECMG 2507/2509 34006KT FEW025 BECMG 2511/2512 FEW040 FEW050CB =

Webcam - letzten 24 Stunden

  • 0
  • 1
  • 2
  • 3
  • 4
  • 5
  • 6
  • 7
  • 8
  • 9
  • 10
  • 11
  • 12
  • 13
  • 14
  • 15
  • 16
  • 17
  • 18
  • 19
  • 20
  • 21
  • 22
  • 23

    Wind - Verlauf

    Windrichtung - Verlauf

    Temperatur - Verlauf

    Relative Luftfeuchtigkeit - Verlauf

    Luftdruck - Verlauf


    JU 52 Nostalgie-Rundflüge - hier am Flugplatz Wels!

    Tickets, Termine und Infos, hier am Flugplatz Wels. Tickethotline +43 7242 26499 0

    Pilot für einen Tag - Erfülle Dir den Traum vom Fliegen!

    Werde einen Tag lang Pilot bei und mit dem Fliegerclub Weiße Möwe in Wels!

    Stadt - Wels

    Ausflugsziele & Sehenswürdigkeiten
    in Wels und Umgebung

    Cookies erleichtern die Bereitstellung unserer Dienste. Mit der Nutzung unserer Dienste erklären Sie sich damit einverstanden, dass wir Cookies verwenden.
    Weitere Informationen Ok